EW5659 Weather Reports


time (UTC)temp
C
wind
direction
speed
KPH
gust
KPH
rain 1hr
cm
rain 24hr
cm
rain mn
cm
humidity
%
barometer
mb
20260505224012 9 360 1.6 9.7 0.00 0.00 0.00 80 1013.8
20260505223516 9 360 4.8 12.9 0.00 0.00 0.00 80 1013.8
20260505223034 9 360 4.8 12.9 0.00 0.00 0.00 80 1013.8
20260505222514 9 360 4.8 12.9 0.00 0.00 0.00 80 1013.8
20260505222013 9 360 4.8 16.1 0.00 0.00 0.00 80 1013.9
20260505221529 9 360 6.4 16.1 0.00 0.00 0.00 79 1013.9
20260505221013 9 360 8.0 16.1 0.00 0.00 0.00 79 1013.8
20260505220517 9 360 4.8 14.5 0.00 0.00 0.00 79 1014.0
20260505220039 9 360 6.4 14.5 0.00 0.00 0.00 79 1013.9
20260505215515 10 360 4.8 14.5 0.00 0.00 0.00 79 1013.9
20260505215015 10 360 4.8 17.7 0.00 0.00 0.00 78 1013.8
20260505214536 10 360 6.4 19.3 0.00 0.00 0.00 78 1013.8
20260505214015 10 360 8.0 19.3 0.00 0.00 0.00 78 1013.8
20260505213514 10 360 4.8 16.1 0.00 0.00 0.00 78 1013.8
20260505213033 10 360 6.4 16.1 0.00 0.00 0.00 78 1013.8
20260505212515 10 360 6.4 16.1 0.00 0.00 0.00 78 1013.7
20260505212014 10 360 6.4 14.5 0.00 0.00 0.00 78 1013.7
20260505211530 10 360 6.4 16.1 0.00 0.00 0.00 78 1013.8
20260505211015 10 360 6.4 19.3 0.00 0.00 0.00 78 1013.8
20260505210552 10 360 6.4 19.3 0.00 0.00 0.00 77 1013.7
20260505210031 10 360 8.0 17.7 0.00 0.00 0.00 77 1013.7
20260505205514 10 360 6.4 25.7 0.00 0.00 0.00 76 1013.7
20260505205014 10 360 6.4 25.7 0.00 0.00 0.00 76 1013.8
20260505204535 10 360 4.8 16.1 0.00 0.00 0.00 76 1013.7
20260505204014 11 360 4.8 20.9 0.00 0.00 0.00 76 1013.7
20260505203513 11 360 6.4 20.9 0.00 0.00 0.00 76 1013.6
20260505203032 11 360 8.0 17.7 0.00 0.00 0.00 78 1013.6
20260505202512 11 360 3.2 9.7 0.00 0.00 0.00 80 1013.6
20260505202014 11 360 3.2 9.7 0.00 0.00 0.00 81 1013.5
20260505201535 11 360 1.6 9.7 0.00 0.00 0.00 82 1013.4
20260505201011 11 360 3.2 9.7 0.00 0.00 0.00 82 1013.5
20260505200518 11 360 3.2 8.0 0.00 0.00 0.00 83 1013.5
20260505200039 11 360 1.6 8.0 0.00 0.00 0.00 83 1013.4
20260505195516 11 360 3.2 8.0 0.00 0.00 0.00 83 1013.4
20260505195013 11 360 1.6 12.9 0.00 0.00 0.00 83 1013.3
20260505194532 11 360 3.2 12.9 0.00 0.00 0.00 83 1013.2
20260505194014 11 360 1.6 12.9 0.00 0.00 0.00 83 1013.2
20260505193513 11 360 1.6 8.0 0.00 0.00 0.00 83 1013.2
20260505193030 11 360 1.6 12.9 0.00 0.00 0.00 83 1013.1
20260505192516 11 360 1.6 14.5 0.00 0.00 0.00 83 1013.2
20260505192014 11 360 4.8 14.5 0.00 0.00 0.00 82 1012.9
20260505191529 11 360 3.2 14.5 0.00 0.00 0.00 82 1012.9
20260505191015 11 360 4.8 17.7 0.00 0.00 0.00 81 1013.0
20260505190514 11 360 4.8 17.7 0.00 0.00 0.00 81 1012.9
20260505190037 11 360 6.4 14.5 0.00 0.00 0.00 80 1012.9
20260505185514 12 360 3.2 17.7 0.00 0.00 0.00 79 1012.8
20260505185014 12 360 3.2 19.3 0.00 0.00 0.00 77 1012.9
20260505184530 12 42 6.4 19.3 0.00 0.00 0.00 75 1012.8
20260505184014 12 43 4.8 25.7 0.00 0.00 0.00 73 1012.6
20260505183513 12 56 8.0 25.7 0.00 0.00 0.00 73 1012.5
20260505183032 12 57 8.0 25.7 0.00 0.00 0.00 72 1012.4
20260505182513 13 73 4.8 19.3 0.00 0.00 0.00 70 1012.5
20260505182013 13 45 3.2 9.7 0.00 0.00 0.00 67 1012.5
20260505181529 13 86 1.6 11.3 0.00 0.00 0.00 67 1012.4
20260505181014 13 71 3.2 11.3 0.00 0.00 0.00 69 1012.4
20260505180513 13 163 1.6 8.0 0.00 0.00 0.00 71 1012.4
20260505180034 13 163 3.2 8.0 0.00 0.00 0.00 71 1012.3
20260505175515 13 163 3.2 8.0 0.00 0.00 0.00 71 1012.3
20260505175017 13 360 1.6 6.4 0.00 0.00 0.00 70 1012.1
20260505174539 13 360 1.6 6.4 0.00 0.00 0.00 70 1012.2
20260505174018 13 360 3.2 6.4 0.00 0.00 0.00 69 1012.2
20260505173513 13 360 3.2 6.4 0.00 0.00 0.00 68 1012.2
20260505173030 13 360 1.6 6.4 0.00 0.00 0.00 68 1012.1
20260505172513 13 360 0.0 3.2 0.00 0.00 0.00 67 1012.1
20260505172016 14 0 0.0 0.0 0.00 0.00 0.00 67 1012.1
20260505171529 14 0 0.0 0.0 0.00 0.00 0.00 67 1012.2
20260505171012 14 0 0.0 0.0 0.00 0.00 0.00 66 1012.1
20260505170515 14 0 0.0 4.8 0.00 0.00 0.00 66 1012.2
20260505170030 14 0 0.0 4.8 0.00 0.00 0.00 65 1012.2
20260505165514 14 360 1.6 6.4 0.00 0.00 0.00 64 1012.2
20260505165016 14 360 3.2 6.4 0.00 0.00 0.00 64 1012.2
20260505164528 14 360 1.6 3.2 0.00 0.00 0.00 65 1012.2
20260505164014 14 0 0.0 3.2 0.00 0.00 0.00 65 1012.2
20260505163513 14 360 0.0 3.2 0.00 0.00 0.00 64 1012.2
20260505163036 15 360 0.0 8.0 0.00 0.00 0.00 63 1012.2
20260505162513 15 0 0.0 8.0 0.00 0.00 0.00 63 1012.2
20260505162012 15 360 3.2 8.0 0.00 0.00 0.00 62 1012.1
20260505161533 15 161 0.0 6.4 0.00 0.00 0.00 62 1012.1
20260505161014 15 161 0.0 6.4 0.00 0.00 0.00 62 1012.0
20260505160514 15 161 0.0 8.0 0.00 0.00 0.00 62 1012.0
20260505153029 15 126 3.2 9.7 0.00 0.00 0.00 58 1012.2
20260505152514 15 90 1.6 9.7 0.00 0.00 0.00 58 1012.2
20260505152018 15 90 3.2 9.7 0.00 0.00 0.00 57 1012.2
20260505151532 15 41 1.6 16.1 0.00 0.00 0.00 56 1012.2
20260505151011 15 38 3.2 16.1 0.00 0.00 0.00 55 1012.2
20260505150514 16 28 4.8 16.1 0.00 0.00 0.00 55 1012.3
20260505140513 16 16 1.6 12.9 0.00 0.00 0.00 54 1012.5
20260505125015 16 40 4.8 19.3 0.00 0.00 0.00 53 1012.6
20260505124540 16 51 4.8 19.3 0.00 0.00 0.00 55 1012.7
20260505124017 16 324 4.8 14.5 0.00 0.00 0.00 52 1012.6
20260505123517 17 352 6.4 14.5 0.00 0.00 0.00 51 1012.6
20260505123038 17 5 0.0 12.9 0.00 0.00 0.00 52 1012.5
20260505122511 16 5 4.8 12.9 0.00 0.00 0.00 51 1012.6
20260505122016 16 352 4.8 11.3 0.00 0.00 0.00 52 1012.7
20260505121531 16 352 3.2 16.1 0.00 0.00 0.00 54 1012.6
20260505121013 16 29 3.2 16.1 0.00 0.00 0.00 55 1012.8
20260505120513 16 5 6.4 14.5 0.00 0.00 0.00 56 1012.7
20260505120030 16 5 0.0 12.9 0.00 0.00 0.00 53 1012.8
20260505115513 16 360 4.8 12.9 0.00 0.00 0.00 54 1012.8
20260505115014 16 341 1.6 12.9 0.00 0.00 0.00 52 1012.8
20260505114529 17 348 3.2 9.7 0.00 0.00 0.00 54 1012.8
20260505114017 16 49 3.2 9.7 0.00 0.00 0.00 55 1012.8
20260505113512 16 65 3.2 14.5 0.00 0.00 0.00 54 1013.0
20260505113031 16 67 3.2 14.5 0.00 0.00 0.00 53 1013.1
20260505112517 16 360 4.8 14.5 0.00 0.00 0.00 56 1013.1
20260505112014 16 352 3.2 9.7 0.00 0.00 0.00 55 1013.2
20260505111536 16 352 3.2 9.7 0.00 0.00 0.00 55 1013.3
20260505111015 16 40 3.2 12.9 0.00 0.00 0.00 56 1013.3
20260505110514 15 330 4.8 12.9 0.00 0.00 0.00 55 1013.3
20260505102012 15 9 4.8 14.5 0.00 0.00 0.00 55 1013.4
20260505101531 15 24 4.8 14.5 0.00 0.00 0.00 56 1013.4
20260505101013 15 0 3.2 11.3 0.00 0.00 0.00 56 1013.5
20260505100517 14 48 1.6 12.9 0.00 0.00 0.00 57 1013.5
20260505100034 14 65 4.8 12.9 0.00 0.00 0.00 58 1013.6
20260505095513 14 350 4.8 12.9 0.00 0.00 0.00 57 1013.5
20260505095012 14 327 3.2 12.9 0.00 0.00 0.00 59 1013.6
20260505094535 14 26 4.8 16.1 0.00 0.00 0.00 57 1013.6
20260505094013 14 31 4.8 17.7 0.00 0.00 0.00 58 1013.6
20260505093512 13 350 1.6 17.7 0.00 0.00 0.00 60 1013.6
20260505093030 13 9 6.4 16.1 0.00 0.00 0.00 57 1013.6
20260505092515 13 9 6.4 17.7 0.00 0.00 0.00 58 1013.6
20260505092015 13 11 4.8 17.7 0.00 0.00 0.00 60 1013.6
20260505091532 13 323 3.2 14.5 0.00 0.00 0.00 62 1013.6
20260505091017 13 16 4.8 12.9 0.00 0.00 0.00 63 1013.7
20260505090514 13 317 4.8 14.5 0.00 0.00 0.00 65 1013.7
20260505090036 13 337 4.8 14.5 0.00 0.00 0.00 64 1013.6
20260505085513 13 360 6.4 19.3 0.00 0.00 0.00 68 1013.6
20260505085013 13 17 8.0 19.3 0.00 0.00 0.00 67 1013.6
20260505084532 12 5 9.7 20.9 0.00 0.00 0.00 70 1013.6
20260505084016 12 5 8.0 20.9 0.00 0.00 0.00 71 1013.6
20260505083512 12 32 8.0 16.1 0.00 0.00 0.00 76 1013.6
20260505083030 12 360 4.8 19.3 0.00 0.00 0.00 78 1013.6
20260505082512 12 360 8.0 19.3 0.00 0.00 0.00 78 1013.6
20260505082018 12 18 4.8 16.1 0.00 0.00 0.00 79 1013.7
20260505081542 11 348 8.0 17.7 0.00 0.00 0.00 80 1013.7
20260505081012 11 360 6.4 17.7 0.00 0.00 0.00 80 1013.7
20260505080514 11 13 9.7 17.7 0.00 0.00 0.00 81 1013.7
20260505080036 11 15 6.4 16.1 0.00 0.00 0.00 82 1013.8
20260505075513 11 360 6.4 16.1 0.00 0.00 0.00 82 1013.7
20260505075016 11 360 4.8 14.5 0.00 0.00 0.00 82 1013.8
20260505074529 11 17 6.4 14.5 0.00 0.00 0.00 83 1013.8
20260505074013 11 360 4.8 14.5 0.00 0.00 0.00 82 1013.7
20260505073512 11 360 4.8 16.1 0.00 0.00 0.00 83 1013.7
20260505073041 11 360 4.8 16.1 0.00 0.00 0.00 83 1013.8
20260505072512 11 360 6.4 16.1 0.00 0.00 0.00 83 1013.8
20260505072011 10 360 6.4 14.5 0.00 0.00 0.00 84 1013.8
20260505071546 10 5 6.4 17.7 0.00 0.00 0.00 84 1013.8
20260505071014 10 5 6.4 17.7 0.00 0.00 0.00 84 1013.8
20260505070511 10 24 6.4 14.5 0.00 0.00 0.00 85 1013.7
20260505070032 10 24 4.8 14.5 0.00 0.00 0.00 85 1013.8
20260505065511 10 17 3.2 12.9 0.00 0.00 0.00 85 1014.0
20260505065013 10 340 3.2 12.9 0.00 0.00 0.00 85 1013.9
20260505064531 10 336 4.8 11.3 0.00 0.00 0.00 86 1014.0
20260505064016 10 5 4.8 11.3 0.00 0.00 0.00 87 1014.0
20260505063513 10 12 4.8 8.0 0.00 0.00 0.00 88 1014.0
20260505063031 10 45 3.2 8.0 0.00 0.00 0.00 88 1014.0
20260505062512 10 52 1.6 6.4 0.00 0.00 0.00 88 1014.0
20260505062011 10 52 3.2 6.4 0.00 0.00 0.00 88 1014.1
20260505061532 10 0 3.2 6.4 0.00 0.00 0.00 89 1014.0
20260505061017 10 53 1.6 4.8 0.00 0.00 0.00 89 1014.1
20260505060515 9 53 1.6 4.8 0.00 0.00 0.00 89 1014.1
20260505060028 9 53 3.2 4.8 0.00 0.00 0.00 89 1014.2
20260505055515 9 53 1.6 4.8 0.00 0.00 0.00 89 1014.1
20260505055014 9 53 0.0 0.0 0.00 0.00 0.00 89 1014.1
20260505054548 9 0 0.0 0.0 0.00 0.00 0.00 90 1014.1
20260505054013 8 0 0.0 0.0 0.00 0.00 0.00 89 1014.1
20260505053515 8 0 0.0 3.2 0.00 0.00 0.00 89 1014.1
20260505053038 8 0 0.0 3.2 0.00 0.00 0.00 88 1014.3
20260505052515 8 0 0.0 3.2 0.00 0.00 0.00 88 1014.3
20260505052013 8 0 1.6 3.2 0.00 0.00 0.00 88 1014.1
20260505051538 8 0 0.0 1.6 0.00 0.00 0.00 88 1014.1
20260505051016 8 0 0.0 0.0 0.00 0.00 0.00 88 1014.2
20260505050518 8 0 0.0 3.2 0.00 0.00 0.00 88 1014.1
20260505041530 9 0 0.0 4.8 0.00 0.00 0.00 88 1014.1
20260505041013 9 360 1.6 4.8 0.00 0.00 0.00 88 1014.1
20260505040514 9 360 0.0 3.2 0.00 0.00 0.00 88 1014.1
20260505040036 9 360 0.0 3.2 0.00 0.00 0.00 88 1014.1
20260505035513 9 360 0.0 3.2 0.00 0.00 0.00 88 1014.2
20260505035018 10 0 0.0 3.2 0.00 0.00 0.00 88 1014.1
20260505034532 10 0 0.0 3.2 0.00 0.00 0.00 88 1014.2
20260505034020 10 0 0.0 3.2 0.00 0.00 0.00 88 1014.3
20260505033513 10 360 0.0 3.2 0.00 0.00 0.00 88 1014.3
20260505033033 10 0 0.0 3.2 0.00 0.00 0.00 88 1014.4
20260505032511 10 0 0.0 3.2 0.00 0.00 0.00 88 1014.4
20260505032018 10 360 0.0 3.2 0.00 0.00 0.00 88 1014.3
20260505031533 10 0 0.0 3.2 0.00 0.00 0.00 88 1014.3
20260505031018 10 0 0.0 3.2 0.00 0.00 0.00 88 1014.3
20260505030515 10 360 1.6 3.2 0.00 0.00 0.00 88 1014.4
20260505030032 10 0 0.0 3.2 0.00 0.00 0.00 88 1014.3
20260505025514 10 360 0.0 4.8 0.00 0.00 0.00 88 1014.2
20260505025014 10 360 0.0 4.8 0.00 0.00 0.00 87 1014.1
20260505024532 10 0 1.6 3.2 0.00 0.00 0.00 87 1014.1
20260505024013 10 0 0.0 3.2 0.00 0.00 0.00 87 1014.2
20260505023513 10 360 0.0 4.8 0.00 0.00 0.00 87 1014.2
20260505023031 10 360 1.6 4.8 0.00 0.00 0.00 87 1014.3
20260505022513 10 360 0.0 4.8 0.00 0.00 0.00 87 1014.3
20260505022011 10 0 0.0 6.4 0.00 0.00 0.00 87 1014.3
20260505021528 10 360 3.2 6.4 0.00 0.00 0.00 87 1014.5
20260505021010 10 360 1.6 6.4 0.00 0.00 0.00 87 1014.4
20260505020511 10 360 1.6 6.4 0.00 0.00 0.00 87 1014.5
20260505020030 10 360 0.0 4.8 0.00 0.00 0.00 87 1014.5
20260505015512 10 360 0.0 3.2 0.00 0.00 0.00 87 1014.6
20260505015017 10 360 1.6 4.8 0.00 0.00 0.00 87 1014.5
20260505014531 10 0 0.0 4.8 0.00 0.00 0.00 87 1014.6
20260505014013 10 360 0.0 4.8 0.00 0.00 0.00 86 1014.6
20260505013512 10 360 1.6 6.4 0.00 0.00 0.00 86 1014.6
20260505013030 10 360 1.6 6.4 0.00 0.00 0.00 86 1014.7
20260505012513 10 360 0.0 4.8 0.00 0.00 0.00 86 1014.7
20260505012013 10 360 1.6 4.8 0.00 0.00 0.00 86 1014.6
20260505011531 10 360 1.6 4.8 0.00 0.00 0.00 86 1014.6
20260505011012 10 360 1.6 6.4 0.00 0.00 0.00 86 1014.6
20260505010514 10 360 0.0 6.4 0.00 0.00 0.00 86 1014.7
20260505010031 10 360 3.2 6.4 0.00 0.00 0.00 86 1014.8
20260505005511 10 360 1.6 6.4 0.00 0.00 0.00 86 1014.8
20260505005010 10 360 1.6 6.4 0.00 0.00 0.00 86 1014.9
20260505004534 10 360 1.6 6.4 0.00 0.00 0.00 86 1014.9
20260505004012 10 360 1.6 6.4 0.00 0.00 0.00 86 1015.0
20260505003514 10 360 1.6 6.4 0.00 0.00 0.00 86 1015.0
20260505003031 10 0 1.6 8.0 0.00 0.00 0.00 86 1015.1
20260505002514 10 360 1.6 8.0 0.00 0.00 0.00 86 1015.2
20260505002014 10 360 0.0 3.2 0.00 0.00 0.00 86 1015.3
20260505001530 10 360 0.0 6.4 0.00 0.00 0.00 86 1015.3
20260505001014 10 0 1.6 6.4 0.00 0.00 0.00 86 1015.3
20260505000514 10 360 1.6 4.8 0.00 0.00 0.00 86 1015.3
20260505000032 10 360 0.0 6.4 0.00 0.00 0.00 86 1015.5
20260504235513 10 0 0.0 6.4 0.00 0.00 0.00 86 1015.4
20260504235011 10 0 0.0 6.4 0.00 0.00 0.00 85 1015.3
20260504234531 10 360 1.6 6.4 0.00 0.00 0.00 85 1015.2
20260504234010 10 360 1.6 6.4 0.00 0.00 0.00 85 1015.2
20260504233513 10 360 1.6 6.4 0.00 0.00 0.00 85 1015.3
20260504233031 10 0 1.6 6.4 0.00 0.00 0.00 85 1015.3
20260504232512 11 360 1.6 8.0 0.00 0.00 0.00 85 1015.2
20260504232015 11 360 3.2 9.7 0.00 0.00 0.00 85 1015.2
20260504231530 11 360 3.2 9.7 0.00 0.00 0.00 85 1015.4
20260504231012 11 360 3.2 8.0 0.00 0.00 0.00 85 1015.4
20260504230515 11 360 1.6 6.4 0.00 0.00 0.00 85 1015.4
20260504230035 11 360 3.2 8.0 0.00 0.00 0.00 85 1015.4
20260504225516 11 360 1.6 8.0 0.00 0.00 0.00 85 1015.5
20260504225014 11 360 1.6 8.0 0.00 0.00 0.00 85 1015.5
20260504224531 11 0 1.6 8.0 0.00 0.00 0.00 85 1015.5